TimeCST,TemperatureF,Dew PointF,Humidity,Sea Level PressureIn,VisibilityMPH,Wind Direction,Wind SpeedMPH,Gust SpeedMPH,PrecipitationIn,Events,Conditions,WindDirDegrees,DateUTC
12:53 AM,7.0,6.1,96,30.37,2.5,Calm,Calm,-,N/A,,Clear,0,2012-12-30 06:53:00
1:03 AM,5.0,3.2,92,30.35,1.0,WSW,3.5,-,N/A,,Clear,240,2012-12-30 07:03:00
1:11 AM,6.8,3.2,85,30.36,0.2,WSW,4.6,-,N/A,Fog,Light Freezing Fog,240,2012-12-30 07:11:00
1:53 AM,1.9,-0.0,91,30.40,0.2,SSE,4.6,-,N/A,Fog,Light Freezing Fog,160,2012-12-30 07:53:00
2:26 AM,3.2,1.4,92,30.39,0.2,South,5.8,-,N/A,Fog,Light Freezing Fog,170,2012-12-30 08:26:00
2:53 AM,3.9,1.9,91,30.43,0.2,South,6.9,-,N/A,Fog,Light Freezing Fog,190,2012-12-30 08:53:00
3:36 AM,3.2,-0.4,85,30.41,0.2,South,4.6,-,N/A,Fog,Light Freezing Fog,190,2012-12-30 09:36:00
3:53 AM,-0.0,-2.9,88,30.44,0.2,South,3.5,-,N/A,Fog,Light Freezing Fog,190,2012-12-30 09:53:00
4:53 AM,1.9,-0.9,88,30.45,0.2,South,4.6,-,N/A,Fog,Light Freezing Fog,170,2012-12-30 10:53:00
5:53 AM,1.9,-2.0,83,30.45,0.2,South,4.6,-,N/A,Fog,Light Freezing Fog,170,2012-12-30 11:53:00
6:53 AM,1.0,-2.9,83,30.48,0.2,SSE,4.6,-,N/A,Fog,Light Freezing Fog,150,2012-12-30 12:53:00
7:53 AM,5.0,1.0,84,30.48,0.2,South,4.6,-,N/A,Fog,Light Freezing Fog,170,2012-12-30 13:53:00
8:53 AM,7.0,5.0,92,30.49,0.2,South,3.5,-,N/A,Fog,Light Freezing Fog,170,2012-12-30 14:53:00
9:33 AM,10.4,8.6,92,30.49,1.5,South,6.9,-,0.00,,Overcast,180,2012-12-30 15:33:00
9:44 AM,12.2,8.6,85,30.49,2.0,South,5.8,-,0.00,,Scattered Clouds,170,2012-12-30 15:44:00
9:53 AM,12.9,9.0,84,30.52,2.5,South,6.9,-,0.00,,Partly Cloudy,170,2012-12-30 15:53:00
10:12 AM,15.8,10.4,79,30.50,3.0,SSE,5.8,-,N/A,,Clear,160,2012-12-30 16:12:00
10:30 AM,17.6,12.2,79,30.50,3.0,South,6.9,-,N/A,,Haze,170,2012-12-30 16:30:00
10:53 AM,19.0,14.0,81,30.51,3.0,South,5.8,-,N/A,,Haze,170,2012-12-30 16:53:00
11:53 AM,21.9,17.1,82,30.48,3.0,SSE,8.1,-,N/A,,Haze,150,2012-12-30 17:53:00
12:53 PM,24.1,19.0,81,30.44,5.0,SSE,6.9,-,0.03,,Haze,160,2012-12-30 18:53:00
1:53 PM,25.0,19.0,78,30.44,5.0,South,9.2,-,0.02,,Haze,170,2012-12-30 19:53:00
2:53 PM,24.1,18.0,77,30.44,5.0,South,9.2,-,0.01,,Haze,180,2012-12-30 20:53:00
3:53 PM,24.1,18.0,77,30.43,5.0,South,13.8,-,N/A,,Haze,180,2012-12-30 21:53:00
4:53 PM,21.9,16.0,78,30.43,6.0,South,10.4,-,N/A,,Haze,180,2012-12-30 22:53:00
5:53 PM,21.9,17.1,82,30.42,6.0,South,8.1,-,N/A,,Haze,180,2012-12-30 23:53:00
6:53 PM,19.0,15.1,85,30.41,4.0,South,4.6,-,N/A,,Clear,190,2012-12-31 00:53:00
7:53 PM,19.9,16.0,85,30.40,4.0,SSW,5.8,-,N/A,,Clear,200,2012-12-31 01:53:00
8:53 PM,19.9,17.1,89,30.39,3.0,SSE,8.1,-,N/A,,Clear,160,2012-12-31 02:53:00
9:21 PM,17.6,15.8,93,30.35,2.5,South,5.8,-,N/A,,Clear,170,2012-12-31 03:21:00
9:37 PM,19.4,17.6,93,30.34,3.0,South,6.9,-,N/A,,Clear,170,2012-12-31 03:37:00
9:53 PM,19.9,17.1,89,30.35,3.0,SSE,9.2,-,N/A,,Clear,160,2012-12-31 03:53:00
10:12 PM,19.4,17.6,93,30.33,3.0,South,5.8,-,N/A,,Clear,180,2012-12-31 04:12:00
10:53 PM,21.9,18.0,85,30.32,4.0,South,8.1,-,N/A,,Clear,170,2012-12-31 04:53:00
11:53 PM,21.9,17.1,82,30.33,4.0,Calm,Calm,-,N/A,,Haze,0,2012-12-31 05:53:00